Dewpoint
-2 -4 -6 -7 -7 -6 -6 -9 -12 -13 -14 -13 -13 -12 -12 -12 -11 -10 -9 -8 -8 -6 -6 -5 -5 -4 -3 -3 -3 -2 -2 -1 0 0 0 1 1 1 1 1 3 1 3
-2 -4 -6 -7 -7 -6 -6 -9 -11 -12 -13 -13 -13 -12 -12 -11 -10 -9 -9 -9 -9 -7 -5 -4 -4 -4 -3 -2 -2 -2 -2 -1 1 0 0 1 2 2 2 2 2 -1 3
-2 -4 -6 -7 -6 -5 -7 -9 -11 -11 -13 -13 -13 -13 -12 -11 -9 -9 -9 -10 -8 -5 -3 -3 -2 -2 -2 -2 -3 -3 -0 1 1 1 1 2 3 3 3 3 3 1 6
-3 -4 -6 -6 -5 -5 -7 -9 -10 -11 -13 -13 -13 -13 -11 -10 -9 -10 -12 -9 -4 -3 -2 -2 -2 -2 -3 -2 -1 -0 0 1 1 1 1 3 3 2 3 4 4 4 7
-3 -4 -5 -6 -5 -6 -7 -9 -10 -11 -12 -12 -12 -11 -10 -10 -11 -11 -10 -4 -2 -1 -1 -2 -2 -3 -2 -1 -0 -0 1 1 1 2 3 4 3 3 4 4 3 6 9
-3 -4 -5 -5 -5 -7 -7 -9 -10 -11 -11 -12 -12 -10 -10 -12 -11 -11 -6 -1 -1 -1 -1 -1 -3 -5 -6 -5 -2 -1 0 1 2 2 4 5 4 3 4 3 4 7 10
-3 -4 -4 -5 -6 -7 -8 -9 -11 -11 -11 -12 -10 -10 -11 -12 -10 -8 -2 -1 -2 -1 -3 -6 -5 -3 -3 -2 -3 -2 1 2 3 3 5 5 5 3 4 3 5 7 10
-4 -4 -4 -5 -6 -7 -9 -10 -11 -11 -11 -11 -10 -11 -11 -10 -9 -7 -3 -3 -4 -5 -5 -4 -4 -3 -3 -1 -1 -0 1 2 3 4 5 6 5 3 5 4 6 7 11
-4 -4 -5 -6 -7 -8 -9 -11 -11 -11 -11 -10 -10 -12 -9 -9 -7 -6 -4 -3 -4 -4 -3 -3 -3 -3 -2 -0 0 1 2 2 3 4 5 6 5 4 5 5 7 9 10
-5 -5 -5 -7 -8 -9 -10 -11 -11 -11 -10 -9 -11 -10 -8 -7 -7 -5 -5 -4 -3 -2 -2 -2 -3 -1 -1 0 0 2 1 2 2 4 6 4 4 6 6 6 8 10 10
-5 -5 -6 -8 -9 -9 -11 -11 -11 -10 -9 -9 -9 -10 -7 -7 -6 -5 -5 -4 -3 -3 -3 -3 -2 -2 -2 0 1 1 1 2 2 4 6 5 4 6 6 7 9 8 8
-5 -6 -7 -9 -10 -11 -11 -11 -10 -9 -9 -8 -8 -8 -7 -6 -5 -4 -5 -4 -2 -3 -3 -3 -3 -3 -1 -0 -0 1 2 2 3 4 6 6 5 5 6 8 9 9 9
-6 -7 -9 -10 -11 -11 -11 -10 -9 -9 -8 -8 -7 -7 -7 -5 -5 -4 -6 -4 -3 -3 -2 -2 -4 -4 -3 -3 -1 0 2 1 2 3 5 6 6 6 6 8 8 9 9
-8 -9 -10 -11 -11 -10 -9 -9 -8 -8 -8 -7 -7 -7 -6 -4 -4 -5 -6 -4 -3 -2 -1 -3 -5 -4 -3 -3 -0 1 1 1 1 2 4 6 7 7 7 8 8 8 9
-9 -10 -11 -11 -11 -10 -9 -8 -8 -8 -7 -7 -7 -5 -4 -4 -5 -3 -3 -2 -2 -2 -2 -4 -5 -4 -3 -3 -0 0 1 1 1 3 5 6 7 7 7 8 8 8 8
-10 -11 -11 -10 -9 -9 -8 -8 -7 -7 -6 -7 -4 -4 -4 -5 -4 -5 -6 -6 -4 -4 -3 -4 -5 -3 -2 -2 -0 -0 1 1 1 3 5 7 7 7 7 8 8 8 8
-10 -10 -9 -8 -8 -8 -8 -7 -7 -7 -7 -4 -4 -5 -5 -4 -4 -5 -6 -5 -4 -4 -4 -4 -5 -3 -2 -2 -1 -0 0 1 1 3 4 7 8 7 6 8 8 8 8
-7 -8 -8 -8 -8 -8 -7 -6 -7 -9 -6 -4 -4 -4 -3 -3 -5 -5 -5 -5 -5 -5 -4 -5 -4 -3 -2 -1 -1 -1 -0 1 1 2 4 7 8 7 8 9 8 8 8
-7 -7 -7 -7 -7 -7 -6 -6 -7 -5 -4 -3 -3 -4 -4 -5 -5 -5 -5 -5 -5 -5 -4 -4 -4 -3 -2 -1 -0 -1 -0 1 1 1 3 6 8 8 8 9 8 8 8
-7 -7 -7 -6 -6 -6 -8 -7 -5 -4 -3 -4 -4 -4 -4 -5 -5 -6 -6 -5 -5 -5 -4 -4 -4 -4 -2 -1 -1 -1 -0 1 1 2 2 6 8 8 9 9 8 8 8
-7 -7 -6 -6 -8 -9 -7 -4 -3 -2 -3 -4 -5 -4 -5 -5 -5 -5 -5 -5 -5 -5 -5 -5 -4 -4 -2 -1 -1 -1 -0 1 1 2 3 5 8 8 9 9 8 8 8
-6 -6 -7 -10 -8 -5 -3 -2 -4 -4 -4 -4 -5 -5 -5 -5 -5 -5 -5 -5 -5 -6 -6 -5 -4 -3 -2 -1 -2 -2 -1 1 1 2 3 5 7 9 9 9 9 8 8
-7 -9 -9 -6 -4 -3 -4 -4 -4 -4 -5 -5 -5 -5 -5 -5 -5 -5 -5 -5 -5 -6 -6 -5 -2 -3 -2 -1 -2 -2 -1 0 1 2 3 5 7 9 9 9 9 8 8
-9 -7 -4 -4 -4 -4 -4 -5 -5 -5 -5 -6 -6 -5 -5 -5 -5 -5 -5 -6 -6 -6 -5 -4 -3 -3 -2 -2 -3 -3 -1 1 2 2 4 5 8 9 9 9 9 9 9
-5 -4 -4 -4 -4 -5 -5 -5 -5 -6 -6 -6 -6 -5 -4 -4 -5 -5 -6 -6 -6 -4 -4 -4 -4 -4 -4 -3 -4 -3 0 1 2 3 5 6 7 9 9 9 9 9 9
-3 -4 -4 -4 -5 -5 -5 -6 -6 -6 -6 -5 -5 -5 -4 -4 -4 -5 -6 -6 -5 -4 -3 -4 -4 -4 -3 -3 -3 -2 1 2 3 4 5 6 7 8 8 9 9 9 9
Wind_Speed
43 39 36 33 29 25 24 21 17 14 15 15 15 16 17 18 19 20 22 25 28 26 27 27 27 26 26 29 30 32 37 39 42 53 51 42 39 37 23 23 26 32 33
42 38 35 31 28 26 25 22 18 15 15 15 15 16 17 17 18 21 24 28 27 27 25 26 26 27 29 29 31 34 38 39 42 45 50 47 45 29 23 23 26 33 33
42 39 35 32 30 28 25 22 19 17 16 16 16 16 15 17 20 24 27 26 25 24 24 25 27 26 29 31 32 36 38 39 40 42 47 43 42 27 24 24 31 37 29
42 39 37 34 31 29 24 22 20 18 17 16 16 15 16 19 23 26 25 23 22 23 23 25 26 28 29 31 33 36 38 41 45 45 45 38 23 22 24 23 36 28 22
41 40 38 32 29 27 24 23 21 20 18 17 16 16 18 21 24 23 22 21 22 24 25 25 28 28 28 29 31 32 40 41 41 46 42 25 17 25 22 30 23 18 19
41 41 36 33 30 28 26 25 22 20 18 17 17 17 20 22 20 22 19 19 22 25 26 30 34 35 35 31 31 32 35 36 43 41 40 26 18 17 16 28 21 15 23
39 40 37 33 31 29 27 26 23 21 18 17 17 19 21 20 19 19 17 19 21 26 30 33 30 28 27 28 31 33 34 35 36 34 24 19 22 15 10 30 26 14 27
39 39 36 34 31 29 28 26 23 20 18 17 18 20 19 17 18 19 17 19 23 30 32 25 27 28 28 28 30 33 35 36 35 30 26 19 14 15 11 27 18 13 39
40 39 36 33 31 30 30 26 23 20 17 17 19 18 16 17 19 18 19 22 30 29 23 25 26 29 27 26 27 34 38 34 31 24 27 17 10 13 11 14 15 20 48
39 37 34 31 30 30 28 24 21 18 16 17 17 16 15 17 19 18 21 25 22 24 24 24 26 25 26 26 27 32 35 31 34 27 22 11 17 17 14 15 17 37 42
34 34 32 31 28 27 25 22 18 15 16 15 15 15 16 18 18 18 24 20 19 22 21 25 28 29 27 27 26 28 28 31 28 23 13 20 17 14 17 27 26 39 43
32 32 31 28 29 26 22 19 16 15 15 14 14 16 17 17 16 19 20 17 15 16 21 25 30 31 27 26 26 27 25 25 20 19 13 24 20 20 16 29 32 34 43
31 32 29 28 26 22 20 16 15 14 14 14 14 18 19 17 17 21 16 14 13 17 21 24 31 26 27 29 22 27 24 24 20 17 15 9 22 24 18 25 28 32 40
31 29 28 25 22 19 16 15 14 15 14 15 17 19 19 18 21 19 13 13 16 19 20 26 27 24 24 26 24 28 25 27 20 18 16 18 19 25 21 24 27 35 40
27 26 23 20 18 15 14 14 15 14 15 16 18 16 17 22 19 14 15 17 18 16 19 25 26 25 27 27 28 30 27 30 23 18 12 17 24 26 22 29 34 38 40
23 22 19 17 14 14 14 15 14 14 16 15 13 16 19 16 14 16 17 17 18 18 19 24 25 24 26 27 27 32 30 32 26 16 7 17 30 28 30 36 37 44 42
18 17 16 14 14 14 14 15 14 15 13 13 16 14 13 14 15 18 16 16 16 17 18 22 22 22 25 27 26 29 33 32 26 14 7 11 30 31 32 46 43 46 43
16 15 14 13 13 13 13 14 15 16 15 13 9 10 11 15 18 15 13 14 16 15 17 20 18 19 22 25 26 29 31 29 28 20 9 11 27 30 34 45 44 45 44
19 16 13 13 12 12 13 14 14 14 14 12 10 9 13 14 11 10 10 12 15 15 15 17 14 17 21 23 24 28 29 26 30 24 17 10 21 32 37 39 47 48 47
14 12 12 12 12 12 12 12 14 12 9 12 15 16 14 14 10 9 9 10 11 14 15 17 17 18 20 21 23 27 29 23 32 30 22 6 23 31 43 48 46 49 50
12 11 11 12 10 11 10 8 7 9 10 13 15 11 11 10 9 10 12 12 13 14 17 18 18 19 20 20 23 28 29 24 30 33 27 5 22 31 31 49 52 48 48
11 11 11 9 9 8 8 8 9 12 13 12 11 10 9 9 9 10 11 12 12 15 17 16 16 18 18 19 21 27 29 25 31 34 30 15 12 27 39 46 49 51 49
11 10 8 7 7 7 7 10 10 9 8 9 11 11 9 9 9 10 11 12 13 14 17 14 14 18 17 18 20 24 26 25 29 34 29 15 15 25 46 49 50 53 52
9 6 6 6 6 7 7 5 6 7 7 9 12 12 10 8 10 11 11 13 14 15 14 13 16 19 20 19 21 24 25 24 27 31 22 13 16 26 41 57 55 53 52
6 6 4 4 4 3 5 5 4 5 7 11 12 11 10 9 9 11 11 13 15 13 12 12 15 20 22 20 21 25 23 22 27 25 19 10 11 29 38 52 53 50 50
6 4 3 3 2 3 5 5 5 6 7 9 12 10 8 8 8 10 12 14 16 13 12 12 15 19 20 19 22 23 21 22 27 21 15 12 9 32 43 47 51 49 47
Wind_Direction
224 224 223 223 224 227 230 229 232 243 247 252 265 272 277 284 291 294 299 301 304 302 302 301 299 298 297 300 300 299 300 296 280 293 298 304 298 290 272 251 242 224 239
222 222 222 221 223 227 227 226 231 245 249 256 267 272 280 288 291 295 300 303 303 303 302 301 304 303 301 303 303 303 303 302 283 283 297 302 296 281 266 253 237 221 247
219 219 217 218 222 224 225 224 230 247 252 260 264 272 280 288 295 300 304 304 303 304 305 307 308 307 307 307 309 306 308 304 293 293 294 294 283 267 262 234 212 214 246
218 216 216 217 221 222 221 225 232 248 254 260 262 271 283 294 300 304 305 305 306 307 307 307 308 307 307 307 309 309 307 300 301 300 299 289 263 256 247 226 200 227 233
218 216 216 218 219 220 220 226 234 248 256 259 264 275 287 298 302 306 309 308 310 308 305 302 301 304 304 303 302 304 304 304 306 307 307 274 247 244 243 205 209 229 192
217 218 217 216 217 217 220 225 235 246 252 260 270 279 292 300 301 310 308 309 305 301 303 303 303 306 301 300 302 302 301 302 303 303 305 240 236 236 238 200 228 240 189
217 216 216 216 216 215 220 225 235 245 253 263 271 283 295 297 309 314 307 304 302 298 302 309 311 312 312 311 311 314 312 315 319 314 304 291 247 227 212 195 228 230 184
215 214 214 214 215 215 219 224 237 243 255 264 273 289 292 302 315 314 308 306 306 306 309 309 309 316 319 322 320 316 319 320 326 328 315 288 250 215 199 202 218 238 165
213 212 211 210 211 214 217 226 237 244 255 264 282 287 295 309 319 315 314 313 310 310 316 315 320 318 319 321 319 321 321 315 327 310 316 246 227 220 209 218 224 189 155
210 209 208 207 209 213 219 230 235 247 254 272 280 291 301 309 318 314 318 322 317 320 317 317 319 316 321 321 321 321 318 325 324 320 338 221 197 207 208 205 187 160 159
205 204 202 203 208 213 221 226 237 241 261 271 284 295 301 310 311 311 325 313 313 314 313 320 321 322 325 323 322 320 325 319 311 317 295 221 216 204 203 189 180 181 174
200 196 196 200 203 211 219 228 229 249 263 273 288 292 298 303 302 314 323 312 314 319 321 322 320 324 323 324 321 331 328 328 316 313 287 189 201 211 219 189 178 178 178
190 189 192 197 204 213 219 220 237 255 267 279 285 289 297 301 302 318 317 317 322 315 316 319 322 323 328 329 328 334 338 341 328 307 279 270 219 228 214 194 175 182 185
182 184 189 195 203 204 214 229 250 259 271 278 284 289 295 300 309 317 310 305 311 319 323 326 326 324 326 331 338 338 344 348 331 312 291 236 225 221 196 188 165 181 190
179 181 188 193 198 208 226 246 256 264 273 281 287 286 297 307 316 318 307 307 312 312 317 326 327 328 333 339 341 336 345 350 341 326 278 219 219 219 201 187 180 185 188
175 181 185 191 201 218 234 246 255 267 279 284 281 294 300 302 304 305 298 291 297 306 312 324 323 326 334 340 341 334 344 347 350 333 234 204 210 209 196 188 179 182 190
184 185 190 199 211 227 238 249 262 273 275 269 284 290 293 297 301 306 300 293 293 299 307 318 320 325 333 335 340 331 339 344 352 347 326 174 203 203 201 181 176 178 188
182 196 200 211 219 232 244 259 272 277 278 284 282 291 309 303 304 305 303 291 292 295 301 318 321 325 333 335 337 328 339 343 357 354 346 204 195 201 193 175 178 184 190
195 199 206 217 225 240 256 269 268 271 280 291 299 306 308 314 309 309 308 315 312 308 313 323 320 326 331 333 333 325 338 340 353 356 349 204 199 208 197 177 180 189 191
203 209 214 225 237 252 261 263 269 270 276 287 297 303 306 309 307 316 312 319 318 320 317 321 321 322 327 329 329 327 335 339 347 357 359 212 203 214 180 187 181 183 194
208 212 224 239 249 258 259 246 249 257 269 287 296 294 306 308 319 319 315 321 316 310 310 314 316 316 325 329 330 328 334 338 344 355 358 324 203 207 186 181 184 189 195
210 227 231 243 245 236 241 240 260 279 287 289 286 285 275 277 284 299 312 315 314 312 308 309 311 315 324 327 331 327 332 338 342 348 348 335 193 185 198 179 189 193 198
219 223 226 225 229 230 249 269 272 274 278 284 293 294 272 267 277 302 315 319 318 314 308 297 320 324 324 322 326 325 330 336 336 339 334 327 191 193 192 188 192 191 195
211 209 211 221 239 269 263 280 266 276 284 294 298 299 283 264 270 287 307 319 314 310 307 305 320 324 321 320 323 325 325 330 331 335 331 323 200 187 179 189 194 198 199
183 190 232 238 248 244 277 282 296 300 310 311 305 293 279 272 268 282 303 308 307 304 305 308 313 318 320 318 323 320 323 327 334 333 325 308 214 190 186 189 193 197 201
191 208 194 197 219 286 297 296 299 309 313 322 314 302 291 289 282 295 302 304 305 299 309 313 314 316 318 319 319 322 326 329 335 332 321 296 251 195 192 196 196 201 202
Height
1446 1452 1458 1463 1468 1472 1475 1478 1480 1482 1482 1483 1484 1485 1485 1485 1484 1483 1481 1478 1476 1473 1472 1469 1466 1464 1461 1458 1456 1452 1446 1443 1433 1418 1416 1411 1408 1407 1405 1407 1414 1419 1423
1438 1445 1451 1457 1463 1466 1469 1473 1475 1476 1478 1479 1479 1480 1480 1479 1478 1477 1474 1472 1469 1467 1464 1462 1460 1458 1454 1451 1447 1442 1436 1432 1425 1414 1407 1401 1398 1398 1400 1398 1399 1406 1416
1431 1437 1444 1450 1455 1459 1463 1467 1469 1471 1472 1473 1474 1474 1474 1474 1472 1470 1468 1465 1463 1461 1458 1456 1453 1450 1447 1444 1440 1433 1427 1420 1415 1408 1396 1392 1388 1390 1394 1397 1400 1408 1412
1424 1431 1437 1443 1448 1453 1458 1461 1464 1466 1467 1468 1468 1468 1468 1468 1466 1463 1461 1458 1456 1454 1452 1449 1446 1444 1440 1435 1431 1426 1419 1412 1405 1396 1386 1380 1381 1382 1383 1390 1393 1403 1403
1418 1424 1429 1436 1443 1448 1452 1455 1459 1461 1462 1463 1463 1463 1463 1461 1460 1457 1454 1452 1451 1448 1446 1443 1440 1437 1434 1430 1425 1420 1413 1404 1396 1387 1379 1375 1376 1376 1375 1378 1385 1393 1397
1410 1417 1424 1431 1436 1441 1446 1450 1453 1455 1456 1457 1457 1458 1457 1456 1454 1451 1449 1448 1445 1442 1439 1436 1433 1429 1425 1421 1417 1412 1407 1398 1390 1380 1373 1369 1372 1373 1376 1375 1380 1386 1395
1403 1411 1418 1425 1430 1435 1441 1446 1448 1450 1451 1452 1453 1453 1451 1450 1448 1445 1444 1442 1439 1436 1432 1428 1424 1422 1419 1414 1407 1401 1396 1390 1382 1375 1369 1366 1369 1371 1374 1379 1387 1384 1385
1395 1403 1412 1419 1425 1431 1436 1440 1443 1445 1446 1446 1448 1447 1446 1445 1442 1440 1439 1436 1433 1430 1426 1421 1418 1415 1412 1408 1401 1394 1388 1380 1374 1368 1364 1364 1366 1371 1373 1377 1376 1380 1384
1386 1395 1403 1411 1418 1425 1430 1434 1437 1440 1440 1442 1442 1441 1440 1439 1437 1435 1433 1430 1426 1422 1419 1416 1412 1409 1406 1404 1397 1390 1383 1375 1369 1363 1358 1359 1360 1360 1366 1371 1373 1374 1382
1378 1387 1397 1404 1412 1418 1425 1429 1432 1434 1435 1436 1436 1436 1434 1434 1432 1430 1427 1423 1419 1416 1413 1410 1408 1404 1401 1398 1394 1387 1379 1373 1367 1359 1355 1356 1362 1367 1368 1369 1375 1376 1381
1375 1383 1392 1400 1407 1414 1420 1424 1427 1429 1430 1431 1431 1430 1430 1429 1427 1424 1421 1417 1414 1411 1409 1405 1401 1398 1395 1393 1390 1384 1377 1370 1363 1359 1356 1357 1359 1363 1370 1371 1374 1378 1381
1372 1380 1388 1396 1403 1410 1415 1419 1421 1423 1425 1425 1424 1424 1424 1424 1421 1419 1415 1412 1410 1408 1405 1401 1396 1392 1389 1387 1383 1378 1371 1365 1359 1355 1353 1357 1360 1362 1364 1369 1375 1376 1388
1370 1377 1385 1393 1400 1406 1410 1413 1416 1418 1419 1419 1419 1419 1418 1417 1415 1413 1410 1408 1407 1405 1402 1397 1391 1387 1384 1381 1378 1374 1366 1360 1355 1352 1351 1351 1356 1359 1365 1370 1374 1381 1390
1369 1375 1383 1391 1397 1402 1406 1409 1411 1412 1413 1414 1414 1414 1412 1410 1408 1406 1405 1404 1401 1399 1396 1393 1388 1384 1380 1376 1372 1370 1364 1359 1353 1350 1347 1349 1352 1356 1361 1366 1371 1379 1389
1369 1375 1382 1389 1394 1398 1402 1404 1406 1407 1408 1409 1409 1408 1405 1403 1402 1400 1400 1398 1397 1395 1393 1389 1385 1380 1376 1372 1367 1364 1359 1355 1349 1344 1343 1343 1348 1352 1359 1364 1371 1377 1385
1369 1374 1380 1386 1390 1394 1398 1400 1401 1402 1403 1403 1403 1402 1399 1398 1397 1396 1395 1394 1393 1391 1388 1386 1382 1377 1373 1370 1365 1359 1355 1350 1346 1342 1339 1339 1344 1349 1356 1362 1367 1374 1383
1368 1373 1378 1382 1386 1390 1393 1395 1396 1398 1398 1398 1398 1396 1395 1394 1393 1392 1390 1389 1388 1387 1384 1383 1380 1375 1370 1366 1363 1359 1352 1347 1341 1335 1333 1335 1341 1346 1351 1355 1363 1371 1381
1368 1372 1376 1379 1383 1386 1388 1390 1391 1392 1392 1392 1392 1391 1391 1389 1387 1386 1385 1383 1382 1382 1381 1379 1377 1374 1369 1364 1359 1356 1350 1345 1337 1331 1329 1332 1336 1341 1345 1349 1359 1367 1376
1369 1372 1373 1377 1379 1382 1384 1385 1386 1387 1386 1387 1387 1387 1386 1384 1383 1382 1381 1379 1378 1377 1377 1375 1373 1371 1368 1364 1359 1355 1349 1343 1337 1333 1329 1328 1332 1337 1343 1346 1355 1364 1371
1367 1369 1371 1375 1376 1377 1378 1380 1381 1381 1381 1383 1383 1382 1380 1379 1378 1378 1377 1374 1374 1374 1373 1371 1369 1367 1365 1361 1357 1352 1346 1340 1333 1327 1325 1324 1327 1333 1335 1343 1352 1359 1367
1365 1367 1369 1372 1372 1372 1374 1375 1377 1377 1377 1377 1378 1377 1377 1376 1375 1374 1372 1371 1371 1369 1368 1366 1364 1362 1360 1356 1351 1345 1341 1337 1332 1324 1318 1320 1323 1329 1331 1339 1347 1356 1363
1363 1366 1367 1368 1369 1369 1370 1372 1373 1373 1373 1373 1373 1372 1372 1372 1371 1370 1368 1368 1366 1366 1364 1361 1359 1358 1355 1352 1349 1343 1337 1331 1327 1322 1317 1315 1315 1323 1329 1335 1343 1350 1358
1361 1362 1363 1365 1366 1366 1368 1369 1370 1370 1370 1369 1369 1368 1368 1367 1367 1366 1364 1364 1363 1361 1359 1356 1354 1352 1351 1349 1346 1341 1335 1332 1327 1322 1316 1313 1314 1320 1323 1330 1337 1345 1353
1359 1360 1362 1363 1364 1365 1366 1366 1367 1366 1367 1367 1366 1364 1364 1363 1363 1361 1361 1360 1359 1357 1355 1352 1350 1347 1345 1344 1341 1336 1331 1329 1326 1320 1314 1310 1311 1314 1317 1324 1331 1339 1347
1357 1358 1360 1361 1363 1364 1366 1365 1364 1364 1364 1364 1363 1361 1361 1359 1358 1358 1357 1356 1355 1353 1351 1349 1346 1344 1340 1338 1336 1333 1330 1325 1320 1315 1311 1308 1308 1312 1316 1322 1329 1336 1344
1354 1356 1358 1360 1362 1364 1364 1362 1362 1361 1361 1360 1360 1359 1358 1356 1355 1354 1353 1352 1351 1349 1347 1346 1344 1340 1337 1333 1331 1329 1324 1321 1316 1311 1307 1305 1305 1309 1315 1319 1325 1332 1341